This is the latest recevied weather packets stored in our database for station/object NEWPRT. If no packets are shown the sender has not sent any weather packets the latest 10 day(s).
| Time | Temp. | Humidity | Pressure | Rain* | Wind** | Luminosity | Snow |
|---|---|---|---|---|---|---|---|
| 1777567182 | - | 74% | 1019.8 hPa | 0 mm | - | - | - |
| 1777566859 | - | 77% | 1019.7 hPa | 0 mm | - | - | - |
| 1777566536 | - | 78% | 1019.7 hPa | 0 mm | - | - | - |
| 1777566213 | - | 79% | 1019.8 hPa | 0 mm | - | - | - |
| 1777565890 | - | 80% | 1019.7 hPa | 0 mm | - | - | - |
| 1777565567 | - | 80% | 1019.6 hPa | 0 mm | - | - | - |
| 1777565244 | - | 81% | 1019.8 hPa | 0 mm | - | - | - |
| 1777564921 | - | 82% | 1019.9 hPa | 0 mm | - | - | - |
| 1777564598 | - | 84% | 1019.8 hPa | 0 mm | - | - | - |
| 1777564275 | - | 84% | 1019.2 hPa | 0 mm | - | - | - |
| 1777563952 | - | 84% | 1019.5 hPa | 0 mm | - | - | - |
| 1777563629 | - | 83% | 1019.1 hPa | 0 mm | - | - | - |
| 1777563306 | - | 83% | 1018.9 hPa | 0 mm | - | - | - |
| 1777562983 | - | 81% | 1018.7 hPa | 0 mm | - | - | - |
| 1777562660 | - | 83% | 1019.2 hPa | 0 mm | - | - | - |
| 1777562337 | - | 85% | 1019.4 hPa | 0 mm | - | - | - |
| 1777562014 | - | 88% | 1019.6 hPa | 0 mm | - | - | - |
| 1777561691 | - | 92% | 1020.1 hPa | 0 mm | - | - | - |
| 1777561368 | - | 92% | 1020.3 hPa | 0 mm | - | - | - |
| 1777561045 | - | 92% | 1020 hPa | 0 mm | - | - | - |
| 1777560722 | - | 90% | 1020.2 hPa | 0 mm | - | - | - |
| 1777560399 | - | 87% | 1020 hPa | 0.25 mm | - | - | - |
| 1777560076 | - | 88% | 1020.1 hPa | 0.25 mm | - | - | - |
| 1777559753 | - | 90% | 1019.9 hPa | 0.25 mm | - | - | - |
| 1777559430 | - | 90% | 1020.2 hPa | 0.25 mm | - | - | - |
* Rain latest hour (hover to see other rain measurements)
** Current wind speed in m/s (hover to see current wind gust speed)